[[{"header":{"parameterUnit":"m.s-1","parameterCategory":2,"la1":30.2991,"la2":30.254,"lo1":-89.0895,"lo2":-89.0444,"dy":0.0017,"dx":0.0017,"nx":28,"ny":28,"refTime":"2025-12-26T09:00:00:Z","depth":"0","parameterNumber":2,"parameterNumberName":"U-component_of_CURRENTS"},"data":[0,0,0,0,0,0,0,0,0,0,0,0,0,0,0,0,0,0,0,0,0,0,0,0,0,0,0,0,0,0,0,0,0,0,0,0,0,0,0,0,0,0,0,0,0,0,0,0,0,0,0,0,0,0,0,0,0,0,-0.1283,-0.1284,0,-0.1319,-0.1319,-0.1319,-0.1312,-0.1311,-0.1311,-0.131,-0.1302,-0.1303,-0.1303,0,0,0,0,0,0,0,0,0,0,0,0,0,-0.1225,-0.1225,-0.1283,-0.1284,-0.1285,-0.1319,-0.1319,-0.1319,-0.1312,-0.1311,-0.1311,-0.131,-0.1302,-0.1303,-0.1303,0,0,0,0,0,0,0,0,0,0,0,0,0,-0.1252,-0.1226,-0.1283,-0.1286,-0.1287,-0.1319,-0.1319,-0.1319,-0.1312,-0.1311,-0.1311,-0.131,-0.1302,-0.1303,-0.1303,-0.132,0,0,-0.1304,-0.1304,0,0,0,0,0,0,0,0,-0.1251,-0.1254,-0.1285,-0.1286,-0.1287,-0.1312,-0.1295,-0.1318,-0.1312,-0.1301,-0.131,-0.131,-0.1303,-0.1303,-0.131,-0.132,-0.1319,-0.1304,-0.1304,-0.1304,-0.1305,0,0,0,0,0,0,0,-0.1249,-0.1253,-0.1296,-0.1286,-0.1287,-0.1291,-0.1294,-0.13,-0.1304,-0.1302,-0.1302,-0.1309,-0.1303,-0.131,-0.131,-0.1319,-0.1304,-0.1304,-0.1305,-0.1305,-0.1328,-0.1328,0,0,0,0,0,0,-0.1248,-0.1251,-0.1295,-0.1297,-0.1269,-0.1293,-0.1296,-0.1303,-0.1304,-0.1305,-0.1309,-0.1308,-0.1309,-0.1309,-0.1309,-0.1326,-0.1304,-0.1305,-0.1305,-0.1328,-0.1328,-0.1328,0,0,0,0,0,0,-0.1247,-0.1252,-0.1293,-0.1276,-0.1282,-0.1295,-0.1303,-0.1304,-0.131,-0.1311,-0.131,-0.1314,-0.1309,-0.1309,-0.1322,-0.1326,-0.1305,-0.1305,-0.1327,-0.1328,-0.1328,-0.1362,0,0,0,0,0,0,-0.1245,-0.1251,-0.1253,-0.1276,-0.1283,-0.1323,-0.1304,-0.1305,-0.1316,-0.1315,-0.1315,-0.1313,-0.1308,-0.1322,-0.1323,-0.1326,-0.1306,-0.1327,-0.1327,-0.1328,-0.136,-0.1364,-0.1366,0,0,0,0,0,-0.1243,-0.1252,-0.1253,-0.1258,-0.1286,-0.1324,-0.1328,-0.1333,-0.1317,-0.1332,-0.1328,-0.1313,-0.1326,-0.1323,-0.1324,-0.1327,-0.1326,-0.1327,-0.1328,-0.1359,-0.1363,-0.1366,0,0,0,0,0,0,-0.1236,-0.1253,-0.1254,-0.127,-0.1299,-0.1323,-0.1334,-0.1336,-0.1344,-0.1337,-0.1328,-0.1327,-0.1337,-0.1331,-0.1327,-0.1335,-0.132,-0.1321,-0.1343,-0.1347,-0.135,-0.1361,-0.1306,0,0,0,0,0,-0.1234,-0.1244,-0.1268,-0.1288,-0.1297,-0.1315,-0.1327,-0.1335,-0.1348,-0.1351,-0.1349,-0.1343,-0.1343,-0.1344,-0.1345,-0.1357,-0.1361,-0.1356,-0.1359,-0.1362,-0.1371,-0.1382,-0.1387,-0.1331,-0.1331,-0.1331,0,0,-0.1239,-0.1251,-0.1257,-0.1287,-0.1304,-0.1332,-0.132,-0.1348,-0.1366,-0.1348,-0.1365,-0.1357,-0.1349,-0.136,-0.1363,-0.1355,-0.1381,-0.1363,-0.1365,-0.1373,-0.1383,-0.1389,-0.1394,-0.1332,-0.1332,-0.1332,0,0,-0.1264,-0.1264,-0.1281,-0.1306,-0.1336,-0.1347,-0.1355,-0.1379,-0.1382,-0.1403,-0.1388,-0.1388,-0.139,-0.1388,-0.1385,-0.1407,-0.1397,-0.1397,-0.1423,-0.1433,-0.1438,-0.1442,-0.1462,-0.1468,-0.1398,-0.1398,-0.1398,0,-0.1276,-0.1292,-0.1297,-0.1328,-0.1347,-0.1354,-0.1385,-0.1395,-0.1422,-0.1428,-0.1412,-0.1415,-0.1404,-0.1418,-0.142,-0.1414,-0.1422,-0.141,-0.1438,-0.1442,-0.1446,-0.1465,-0.1471,-0.14,-0.1399,-0.1399,-0.1399,0,-0.1311,-0.133,-0.1346,-0.1378,-0.1403,-0.1432,-0.145,-0.1465,-0.1458,-0.1466,-0.1476,-0.1465,-0.1465,-0.1456,-0.1443,-0.1462,-0.146,-0.1442,-0.1431,-0.1454,-0.1473,-0.1478,-0.1402,-0.1402,-0.1401,-0.1401,0,0,-0.1336,-0.1362,-0.1372,-0.139,-0.1427,-0.1456,-0.1483,-0.1511,-0.1529,-0.153,-0.1552,-0.1537,-0.1522,-0.1517,-0.1498,-0.1504,-0.1533,-0.1485,-0.1485,-0.1509,-0.1567,-0.1575,-0.1581,-0.1519,-0.152,-0.152,-0.1572,0,-0.1367,-0.1415,-0.1422,-0.1475,-0.1499,-0.1513,-0.1542,-0.1569,-0.1575,-0.1598,-0.1578,-0.1585,-0.1546,-0.1542,-0.1543,-0.1533,-0.1548,-0.1521,-0.1537,-0.1538,-0.1545,-0.1588,-0.1435,-0.1469,-0.1578,-0.1578,-0.1579,0,-0.14,-0.1427,-0.1472,-0.1514,-0.1527,-0.1553,-0.1597,-0.1622,-0.1649,-0.1656,-0.1658,-0.1644,-0.1645,-0.1608,-0.1612,-0.1596,-0.1588,-0.1581,-0.1583,-0.1583,-0.1557,-0.1461,-0.1475,-0.1407,-0.1588,-0.1587,-0.1586,0,-0.1411,-0.1464,-0.1493,-0.1511,-0.1559,-0.1576,-0.1595,-0.1633,-0.1659,-0.1685,-0.1707,-0.1704,-0.1701,-0.169,-0.1665,-0.1639,-0.1683,-0.1642,-0.165,-0.165,-0.152,-0.1508,-0.1473,-0.1662,-0.1662,-0.1661,-0.1661,0,-0.1438,-0.1466,-0.1495,-0.1516,-0.1552,-0.1583,-0.1622,-0.1646,-0.1689,-0.173,-0.1723,-0.1756,-0.172,-0.1733,-0.1704,-0.1705,-0.1712,-0.1673,-0.1669,-0.1529,-0.1518,-0.1454,-0.1463,-0.1663,-0.1663,-0.1663,-0.1662,0,-0.1443,-0.1465,-0.1497,-0.154,-0.1554,-0.1575,-0.1625,-0.1658,-0.1698,-0.1753,-0.1762,-0.1797,-0.1812,-0.1796,-0.1791,-0.1759,-0.1713,-0.1756,-0.1605,-0.1583,-0.1517,-0.1535,-0.1577,-0.1537,-0.1766,-0.1767,-0.1767,0,-0.1445,-0.146,-0.15,-0.1517,-0.1529,-0.1565,-0.1595,-0.1648,-0.1688,-0.1781,-0.1809,-0.1849,-0.1875,-0.1885,-0.181,-0.178,-0.1748,-0.1654,-0.1577,-0.1515,-0.1531,-0.1554,-0.1518,-0.1414,-0.1412,-0.141,-0.1408,0,-0.1435,-0.144,-0.146,-0.149,-0.1517,-0.1558,-0.16,-0.1642,-0.1719,-0.178,-0.1861,-0.1892,-0.1887,-0.1783,-0.1749,-0.1703,-0.1578,-0.1617,-0.1566,-0.1283,-0.129,-0.1246,-0.1398,-0.139,-0.1392,-0.1393,-0.1394,-0.1395,-0.1403,-0.1405,-0.1417,-0.1437,-0.1478,-0.1518,-0.152,-0.1603,-0.1667,-0.1716,-0.1827,-0.1781,-0.1711,-0.1623,-0.1584,-0.1389,-0.1498,-0.1297,-0.1335,-0.1374,-0.1303,-0.1449,-0.1434,-0.1436,-0.1438,-0.1439,-0.144,0,-0.1341,-0.1343,-0.1363,-0.1377,-0.1389,-0.1432,-0.1495,-0.1481,-0.1529,-0.1553,-0.1606,-0.147,-0.1393,-0.129,-0.114,-0.1079,-0.1028,-0.1061,-0.0993,-0.0978,-0.108,-0.1025,-0.0903,-0.0903,-0.0903,-0.0903,-0.0903,-0.0903,-0.1305,-0.128,-0.1281,-0.1257,-0.1277,-0.1245,-0.1255,-0.1268,-0.1234,-0.1143,-0.1012,-0.0951,-0.0944,-0.1021,-0.0903,-0.0851,-0.082,-0.0823,-0.0909,-0.089,-0.0911,-0.0932,-0.0878,-0.0727,-0.0727,-0.0685,-0.0685,-0.0685]},{"header":{"parameterUnit":"m.s-1","parameterCategory":2,"la1":30.2991,"la2":30.254,"lo1":-89.0895,"lo2":-89.0444,"dy":0.0017,"dx":0.0017,"nx":28,"ny":28,"refTime":"2025-12-26T09:00:00:Z","depth":"0","parameterNumber":3,"parameterNumberName":"V-component_of_CURRENTS"},"data":[0,0,0,0,0,0,0,0,0,0,0,0,0,0,0,0,0,0,0,0,0,0,0,0,0,0,0,0,0,0,0,0,0,0,0,0,0,0,0,0,0,0,0,0,0,0,0,0,0,0,0,0,0,0,0,0,0,0,0.0542,0.0542,0,0.0544,0.0545,0.0545,0.0577,0.0577,0.0578,0.0578,0.059,0.059,0.059,0,0,0,0,0,0,0,0,0,0,0,0,0,0.0603,0.0602,0.0542,0.0542,0.0541,0.0544,0.0545,0.0545,0.0577,0.0577,0.0578,0.0578,0.059,0.059,0.059,0,0,0,0,0,0,0,0,0,0,0,0,0,0.0592,0.0602,0.0542,0.0555,0.0555,0.0544,0.0545,0.0545,0.0576,0.0577,0.0578,0.0578,0.059,0.059,0.059,0.0575,0,0,0.0589,0.0589,0,0,0,0,0,0,0,0,0.0593,0.059,0.0553,0.0554,0.0555,0.0557,0.0571,0.0554,0.0576,0.0573,0.0578,0.0579,0.0577,0.0578,0.0582,0.0576,0.0576,0.0589,0.0589,0.0589,0.0589,0,0,0,0,0,0,0,0.0593,0.059,0.0547,0.0552,0.0553,0.0573,0.0572,0.0568,0.0574,0.0573,0.0574,0.0568,0.0578,0.0582,0.0583,0.0577,0.0589,0.0589,0.0589,0.0589,0.0611,0.0612,0,0,0,0,0,0,0.0582,0.0591,0.0547,0.0546,0.0571,0.0571,0.057,0.0559,0.0574,0.0576,0.0568,0.057,0.0582,0.0583,0.0583,0.0583,0.0589,0.0589,0.0589,0.061,0.0611,0.0612,0,0,0,0,0,0,0.0583,0.0578,0.0546,0.0566,0.0563,0.0568,0.0556,0.0559,0.0558,0.0569,0.0572,0.0563,0.0583,0.0583,0.0576,0.0583,0.0589,0.0589,0.0609,0.061,0.0611,0.0571,0,0,0,0,0,0,0.0585,0.0578,0.0567,0.0565,0.0561,0.0528,0.0555,0.0558,0.0552,0.0554,0.0566,0.0569,0.0583,0.0576,0.0576,0.0583,0.0589,0.0609,0.061,0.0611,0.0572,0.0571,0.057,0,0,0,0,0,0.0587,0.0556,0.0567,0.0561,0.0545,0.0527,0.0527,0.0537,0.055,0.0541,0.0555,0.0568,0.0586,0.0575,0.0575,0.0582,0.0608,0.061,0.0611,0.0572,0.0571,0.057,0,0,0,0,0,0,0.0572,0.0556,0.0568,0.0533,0.053,0.0531,0.0516,0.0528,0.0533,0.0538,0.0557,0.0559,0.0563,0.0576,0.0565,0.0597,0.0606,0.0608,0.0577,0.0576,0.0575,0.0557,0.0589,0,0,0,0,0,0.0564,0.0536,0.0536,0.0506,0.0503,0.0513,0.0507,0.0515,0.0517,0.052,0.0531,0.0552,0.057,0.0573,0.0588,0.0586,0.0601,0.0599,0.0598,0.0597,0.0586,0.063,0.0631,0.0617,0.0617,0.0617,0,0,0.0547,0.0535,0.0519,0.0501,0.0501,0.0485,0.0511,0.0495,0.049,0.0519,0.0513,0.0541,0.0569,0.0579,0.0584,0.0588,0.0607,0.0599,0.0598,0.0586,0.0632,0.0633,0.0634,0.0618,0.0618,0.0617,0,0,0.0496,0.0492,0.0458,0.0454,0.0447,0.0454,0.0446,0.0451,0.0464,0.0459,0.0495,0.0522,0.0531,0.0565,0.0582,0.0582,0.0601,0.0595,0.057,0.0614,0.0615,0.0616,0.0619,0.0621,0.0595,0.0595,0.0595,0,0.0481,0.0439,0.0446,0.0419,0.0409,0.0436,0.0409,0.0422,0.0427,0.0437,0.0451,0.0502,0.0529,0.0556,0.0566,0.0579,0.059,0.0567,0.061,0.0612,0.0614,0.0617,0.062,0.0593,0.0593,0.0593,0.0593,0,0.041,0.0385,0.0362,0.0342,0.0336,0.0311,0.0333,0.0337,0.0359,0.0382,0.0413,0.046,0.0491,0.0519,0.0537,0.0572,0.057,0.0602,0.0606,0.0613,0.0616,0.0619,0.059,0.0591,0.0591,0.0592,0,0,0.0352,0.0319,0.0311,0.0292,0.0294,0.0273,0.0276,0.0283,0.0284,0.0325,0.0332,0.0396,0.0435,0.0458,0.0504,0.0547,0.0573,0.0572,0.0575,0.0562,0.0635,0.0576,0.0574,0.0611,0.0612,0.0613,0.0624,0,0.0297,0.0226,0.0235,0.018,0.0148,0.0183,0.0178,0.0198,0.0232,0.0249,0.0327,0.0352,0.0409,0.0428,0.0481,0.0552,0.0583,0.0565,0.0642,0.0644,0.0581,0.0576,0.0624,0.0633,0.0628,0.0628,0.0629,0,0.023,0.0188,0.0124,0.0095,0.0087,0.0071,0.0072,0.0075,0.0128,0.0157,0.0213,0.0269,0.0337,0.0388,0.0503,0.0486,0.0548,0.0606,0.0609,0.0568,0.0591,0.0632,0.0639,0.0755,0.0634,0.0634,0.0633,0,0.0169,0.0114,0.0056,0.0043,0.0021,0.0011,0.0009,0.0047,0.0048,0.0103,0.0109,0.0206,0.0241,0.035,0.0457,0.0485,0.0566,0.0628,0.0629,0.0624,0.0685,0.0684,0.0803,0.0701,0.0701,0.0701,0.0701,0,0.0101,0.0054,0.0021,-0.0015,-0.0075,-0.0055,-0.0088,-0.0068,-0.0037,-0.0047,0.0056,0.0065,0.0236,0.0302,0.0419,0.0506,0.0537,0.0608,0.0625,0.0669,0.0667,0.0786,0.0833,0.0701,0.0701,0.0701,0.0701,0,0.0045,0.0021,-0.0052,-0.0094,-0.0107,-0.0149,-0.0167,-0.0191,-0.0143,-0.0153,-0.0143,-0.0045,0.0035,0.0174,0.0332,0.0434,0.06,0.0562,0.0571,0.0588,0.0704,0.0746,0.0823,0.0885,0.0584,0.0582,0.0581,0,0.0016,-0.0031,-0.0115,-0.017,-0.0191,-0.0241,-0.0278,-0.025,-0.027,-0.0228,-0.0248,-0.0175,-0.0132,0.005,0.0247,0.041,0.0526,0.054,0.0615,0.0696,0.0758,0.0785,0.0836,0.0684,0.0684,0.0684,0.0684,0,-0.004,-0.0074,-0.0143,-0.0259,-0.0323,-0.039,-0.0432,-0.0459,-0.0429,-0.042,-0.0406,-0.0363,-0.0191,0.0015,0.0211,0.0335,0.0622,0.0537,0.066,0.0858,0.0863,0.0936,0.0659,0.0682,0.0682,0.0683,0.0683,0.0683,-0.0074,-0.0146,-0.0245,-0.0358,-0.044,-0.0527,-0.0568,-0.0598,-0.0622,-0.0549,-0.0504,-0.0306,-0.0097,0.0194,0.0298,0.0598,0.0589,0.0743,0.0787,0.0806,0.0866,0.0534,0.0548,0.0548,0.0547,0.0547,0.0547,0,-0.0126,-0.0222,-0.0336,-0.0477,-0.0586,-0.0596,-0.0667,-0.0676,-0.0701,-0.052,-0.0443,0.0004,0.0191,0.0449,0.0758,0.0893,0.0965,0.0962,0.1079,0.1123,0.0885,0.0891,0.0933,0.0933,0.0933,0.0933,0.0933,0.0933,-0.0162,-0.0294,-0.0373,-0.0576,-0.0663,-0.0751,-0.078,-0.076,-0.0623,-0.029,0.0117,0.0403,0.0747,0.0943,0.1176,0.1197,0.1346,0.1294,0.1351,0.1262,0.1247,0.1234,0.1255,0.1373,0.1373,0.1625,0.1628,0.1629]}],[{"header":{"parameterUnit":"m.s-1","parameterCategory":2,"la1":30.2991,"la2":30.254,"lo1":-89.0895,"lo2":-89.0444,"dy":0.0017,"dx":0.0017,"nx":28,"ny":28,"refTime":"2025-12-26T09:00:00:Z","depth":"2","parameterNumber":2,"parameterNumberName":"U-component_of_CURRENTS"},"data":[0,0,0,0,0,0,0,0,0,0,0,0,0,0,0,0,0,0,0,0,0,0,0,0,0,0,0,0,0,0,0,0,0,0,0,0,0,0,0,0,0,0,0,0,0,0,0,0,0,0,0,0,0,0,0,0,0,0,-0.1984,-0.1985,0,-0.206,-0.2061,-0.2061,-0.2021,-0.2019,-0.2017,-0.2015,-0.1988,-0.1989,-0.199,0,0,0,0,0,0,0,0,0,0,0,0,0,-0.1805,-0.1808,-0.1984,-0.1985,-0.1986,-0.206,-0.2061,-0.2062,-0.2021,-0.2019,-0.2017,-0.2014,-0.1987,-0.1988,-0.199,0,0,0,0,0,0,0,0,0,0,0,0,0,-0.1879,-0.1809,-0.1983,-0.1977,-0.1977,-0.206,-0.2061,-0.2062,-0.2021,-0.2019,-0.2016,-0.2013,-0.1987,-0.1988,-0.199,-0.2053,0,0,-0.1994,-0.1995,0,0,0,0,0,0,0,0,-0.1875,-0.1885,-0.1976,-0.1977,-0.1978,-0.203,-0.1988,-0.2055,-0.2022,-0.2002,-0.2015,-0.2012,-0.1996,-0.1997,-0.2015,-0.2052,-0.2051,-0.1994,-0.1995,-0.1996,-0.1996,0,0,0,0,0,0,0,-0.187,-0.1882,-0.2011,-0.1978,-0.1979,-0.1971,-0.1978,-0.2,-0.2009,-0.2003,-0.2001,-0.2015,-0.1995,-0.2014,-0.2013,-0.205,-0.1994,-0.1995,-0.1996,-0.1997,-0.2076,-0.2077,0,0,0,0,0,0,-0.187,-0.1878,-0.2009,-0.2014,-0.1922,-0.1976,-0.1984,-0.2014,-0.2011,-0.201,-0.2017,-0.2013,-0.2012,-0.2012,-0.2012,-0.2038,-0.1996,-0.1997,-0.1998,-0.2074,-0.2076,-0.2077,0,0,0,0,0,0,-0.1866,-0.1882,-0.2006,-0.1948,-0.1963,-0.1983,-0.2016,-0.2017,-0.2022,-0.2023,-0.2019,-0.202,-0.201,-0.201,-0.2022,-0.2037,-0.1998,-0.1999,-0.2073,-0.2075,-0.2076,-0.212,0,0,0,0,0,0,-0.1861,-0.188,-0.1896,-0.1949,-0.1967,-0.205,-0.2019,-0.2021,-0.2037,-0.2032,-0.2025,-0.202,-0.2008,-0.202,-0.2023,-0.2039,-0.2,-0.2071,-0.2074,-0.2076,-0.2117,-0.2123,-0.2128,0,0,0,0,0,-0.1854,-0.1893,-0.1897,-0.1912,-0.199,-0.2051,-0.206,-0.2061,-0.204,-0.2053,-0.2042,-0.202,-0.2036,-0.2023,-0.2026,-0.2042,-0.207,-0.2073,-0.2076,-0.2114,-0.2122,-0.2128,0,0,0,0,0,0,-0.1821,-0.1895,-0.1899,-0.1956,-0.1996,-0.2045,-0.2061,-0.2066,-0.2074,-0.2059,-0.2044,-0.2041,-0.2054,-0.205,-0.2036,-0.2072,-0.2048,-0.2051,-0.2076,-0.2083,-0.2088,-0.2084,-0.2001,0,0,0,0,0,-0.1825,-0.187,-0.1931,-0.1972,-0.1995,-0.2028,-0.2049,-0.2058,-0.2077,-0.2077,-0.2072,-0.2068,-0.2077,-0.2078,-0.2084,-0.2116,-0.2094,-0.2126,-0.2132,-0.2136,-0.2136,-0.2124,-0.2128,-0.2086,-0.2086,-0.2086,0,0,-0.182,-0.1868,-0.189,-0.1967,-0.1995,-0.2046,-0.2032,-0.2074,-0.2103,-0.2075,-0.2097,-0.209,-0.2089,-0.2113,-0.2119,-0.2107,-0.2138,-0.214,-0.2144,-0.2141,-0.2127,-0.2131,-0.2134,-0.2088,-0.2088,-0.2087,0,0,-0.1847,-0.1879,-0.1928,-0.197,-0.2027,-0.2053,-0.2065,-0.2115,-0.2118,-0.2155,-0.2132,-0.2134,-0.2156,-0.2155,-0.2158,-0.2205,-0.2167,-0.2205,-0.2232,-0.2221,-0.2224,-0.2226,-0.2202,-0.2202,-0.2209,-0.2209,-0.2209,0,-0.1833,-0.1913,-0.1948,-0.2007,-0.204,-0.2058,-0.2111,-0.2135,-0.2175,-0.218,-0.216,-0.218,-0.2178,-0.2201,-0.2213,-0.2217,-0.2196,-0.2205,-0.2227,-0.2228,-0.223,-0.2205,-0.2204,-0.2211,-0.2211,-0.2211,-0.221,0,-0.1906,-0.1962,-0.1993,-0.2072,-0.2109,-0.2158,-0.2199,-0.2218,-0.2219,-0.2235,-0.2248,-0.2245,-0.2249,-0.2255,-0.225,-0.2265,-0.2241,-0.2232,-0.2205,-0.2236,-0.2208,-0.2207,-0.2215,-0.2214,-0.2213,-0.2212,0,0,-0.1888,-0.202,-0.2026,-0.2066,-0.2146,-0.2181,-0.2229,-0.2276,-0.2283,-0.2306,-0.2315,-0.2336,-0.2312,-0.2315,-0.2303,-0.2299,-0.2295,-0.2272,-0.227,-0.2241,-0.2255,-0.2114,-0.2099,-0.2283,-0.2283,-0.2283,-0.223,0,-0.1927,-0.2047,-0.2099,-0.2178,-0.2237,-0.2263,-0.23,-0.2333,-0.234,-0.2349,-0.2347,-0.235,-0.2343,-0.2332,-0.2331,-0.2306,-0.2292,-0.2309,-0.2235,-0.2233,-0.2098,-0.2093,-0.1959,-0.1889,-0.2228,-0.2227,-0.2227,0,-0.1977,-0.2052,-0.215,-0.2232,-0.2253,-0.229,-0.2323,-0.236,-0.2379,-0.2382,-0.2385,-0.2373,-0.2382,-0.2357,-0.2333,-0.234,-0.23,-0.2276,-0.2273,-0.2123,-0.2088,-0.1914,-0.1872,-0.2224,-0.2224,-0.2224,-0.2224,0,-0.1952,-0.2074,-0.2148,-0.2183,-0.2281,-0.2299,-0.2331,-0.236,-0.2379,-0.2391,-0.2396,-0.2396,-0.2386,-0.2358,-0.2305,-0.2321,-0.225,-0.2266,-0.2102,-0.2092,-0.1952,-0.1928,-0.2232,-0.2232,-0.2232,-0.2232,-0.2232,0,-0.1983,-0.2031,-0.2136,-0.2177,-0.2222,-0.2284,-0.2309,-0.2337,-0.2367,-0.2369,-0.24,-0.2377,-0.2383,-0.2341,-0.2302,-0.2177,-0.2245,-0.2093,-0.2062,-0.1962,-0.1941,-0.2215,-0.2214,-0.223,-0.223,-0.2231,-0.2231,0,-0.1951,-0.2033,-0.2106,-0.22,-0.2221,-0.2242,-0.2305,-0.2317,-0.2355,-0.2358,-0.2364,-0.237,-0.2292,-0.2269,-0.2201,-0.2147,-0.2061,-0.1995,-0.1865,-0.1818,-0.1919,-0.1921,-0.1827,-0.1821,-0.1816,-0.1812,-0.1809,0,-0.1956,-0.1998,-0.2094,-0.2119,-0.2158,-0.2203,-0.2229,-0.2295,-0.2308,-0.2322,-0.2311,-0.2258,-0.2135,-0.1994,-0.1907,-0.1791,-0.1894,-0.1616,-0.1619,-0.1894,-0.1875,-0.1885,-0.1893,-0.1465,-0.1459,-0.1455,-0.1451,0,-0.1934,-0.1958,-0.201,-0.207,-0.2103,-0.2139,-0.218,-0.2182,-0.223,-0.2184,-0.2083,-0.1976,-0.1863,-0.1651,-0.1533,-0.1461,-0.163,-0.151,-0.1829,-0.1574,-0.1544,-0.1529,-0.1551,-0.1408,-0.1412,-0.1415,-0.1418,-0.1419,-0.1875,-0.1897,-0.1954,-0.1995,-0.2035,-0.2028,-0.198,-0.1991,-0.1917,-0.1816,-0.1833,-0.1642,-0.1596,-0.131,-0.1197,-0.1159,-0.1276,-0.1251,-0.127,-0.1294,-0.1246,-0.1208,-0.1001,-0.1003,-0.1004,-0.1006,-0.1007,0,-0.1802,-0.1839,-0.1877,-0.1896,-0.1874,-0.194,-0.1908,-0.1792,-0.1603,-0.1582,-0.1438,-0.1219,-0.1038,-0.1031,-0.0888,-0.0821,-0.0863,-0.0796,-0.088,-0.0921,-0.0957,-0.0899,-0.0558,-0.0557,-0.0556,-0.0555,0,0,-0.1762,-0.1773,-0.1803,-0.173,-0.1728,-0.1599,-0.1533,-0.1359,-0.1279,-0.1076,-0.1007,-0.1053,-0.1024,-0.0831,-0.0738,-0.0638,-0.0787,-0.0597,-0.0955,-0.1098,-0.1134,-0.1208,-0.1159,0,0,0,0,0]},{"header":{"parameterUnit":"m.s-1","parameterCategory":2,"la1":30.2991,"la2":30.254,"lo1":-89.0895,"lo2":-89.0444,"dy":0.0017,"dx":0.0017,"nx":28,"ny":28,"refTime":"2025-12-26T09:00:00:Z","depth":"2","parameterNumber":3,"parameterNumberName":"V-component_of_CURRENTS"},"data":[0,0,0,0,0,0,0,0,0,0,0,0,0,0,0,0,0,0,0,0,0,0,0,0,0,0,0,0,0,0,0,0,0,0,0,0,0,0,0,0,0,0,0,0,0,0,0,0,0,0,0,0,0,0,0,0,0,0,-0.0171,-0.017,0,-0.0055,-0.0054,-0.0053,-0.0003,-0.0003,-0.0003,-0.0003,0.0128,0.0131,0.0135,0,0,0,0,0,0,0,0,0,0,0,0,0,-0.024,-0.0239,-0.0171,-0.017,-0.0168,-0.0055,-0.0054,-0.0052,-0.0003,-0.0003,-0.0003,-0.0004,0.0127,0.0131,0.0136,0,0,0,0,0,0,0,0,0,0,0,0,0,-0.0175,-0.0239,-0.0171,-0.013,-0.0125,-0.0056,-0.0054,-0.0052,-0.0003,-0.0003,-0.0003,-0.0004,0.0125,0.0131,0.0136,0.0178,0,0,0.0153,0.0156,0,0,0,0,0,0,0,0,-0.0179,-0.0173,-0.0138,-0.0133,-0.0127,-0.0044,-0.003,0.0026,-0.0003,-0.0049,-0.0003,-0.0004,0.0072,0.0082,0.0105,0.0184,0.019,0.0154,0.0157,0.0159,0.0161,0,0,0,0,0,0,0,-0.0184,-0.0177,-0.0125,-0.0136,-0.013,-0.008,-0.0072,-0.0019,0.0013,-0.0045,-0.0041,-0.0029,0.0075,0.0099,0.0108,0.0192,0.0154,0.0158,0.0162,0.0164,0.029,0.029,0,0,0,0,0,0,-0.0204,-0.0182,-0.0128,-0.0121,-0.0155,-0.0079,-0.007,-0.007,0.0012,0.0024,-0.0029,-0.0027,0.009,0.0102,0.0113,0.015,0.0159,0.0165,0.0168,0.029,0.029,0.029,0,0,0,0,0,0,-0.0207,-0.0201,-0.0133,-0.0148,-0.0136,-0.0079,-0.0078,-0.0068,-0.0048,0.0024,0.0036,-0.002,0.009,0.0105,0.0153,0.0156,0.0167,0.0172,0.029,0.029,0.029,0.0235,0,0,0,0,0,0,-0.0209,-0.0203,-0.021,-0.015,-0.0136,-0.0103,-0.0077,-0.0065,-0.004,-0.0037,0.0036,0.0048,0.0091,0.0144,0.0158,0.0164,0.0177,0.029,0.029,0.029,0.0237,0.0233,0.023,0,0,0,0,0,-0.0212,-0.0226,-0.0211,-0.0204,-0.0148,-0.0103,-0.0091,-0.005,-0.0039,-0.0033,0.0014,0.0045,0.0154,0.0149,0.0166,0.0173,0.029,0.029,0.029,0.0238,0.0234,0.023,0,0,0,0,0,0,-0.0258,-0.022,-0.0203,-0.0204,-0.0161,-0.0095,-0.0086,-0.0056,-0.0012,-0.0012,0.0052,0.0068,0.0108,0.0148,0.0141,0.0207,0.0225,0.0228,0.018,0.0176,0.0173,0.016,0.0181,0,0,0,0,0,-0.0272,-0.0274,-0.0221,-0.0221,-0.0205,-0.0146,-0.0123,-0.0095,-0.0047,-0.0028,0.0023,0.0075,0.0124,0.0153,0.0199,0.0243,0.0279,0.0256,0.0253,0.0249,0.025,0.03,0.0301,0.029,0.029,0.029,0,0,-0.0288,-0.0268,-0.0268,-0.023,-0.0195,-0.0172,-0.0134,-0.0107,-0.0081,-0.002,0.0022,0.0065,0.0131,0.0173,0.0195,0.0207,0.027,0.0249,0.0246,0.0248,0.03,0.0302,0.0303,0.029,0.029,0.029,0,0,-0.0322,-0.0306,-0.0318,-0.0285,-0.0241,-0.0198,-0.0195,-0.0134,-0.0105,-0.0056,-0.0012,0.0032,0.011,0.0157,0.0192,0.02,0.0246,0.0209,0.0191,0.024,0.0241,0.0243,0.0283,0.0289,0.0213,0.0213,0.0213,0,-0.0344,-0.0348,-0.0311,-0.0305,-0.028,-0.0216,-0.0209,-0.0163,-0.0093,-0.0066,-0.0055,0.0056,0.0106,0.0169,0.0166,0.0193,0.0222,0.0201,0.0235,0.0238,0.024,0.0281,0.0288,0.021,0.0211,0.0211,0.0211,0,-0.0379,-0.0376,-0.0378,-0.035,-0.0318,-0.0302,-0.0234,-0.02,-0.0158,-0.0106,-0.0044,0.0024,0.009,0.011,0.0144,0.0187,0.0201,0.0219,0.0243,0.0238,0.0282,0.029,0.0206,0.0207,0.0208,0.0209,0,0,-0.0439,-0.0412,-0.041,-0.0404,-0.0341,-0.0318,-0.0274,-0.0212,-0.0182,-0.0114,-0.007,0.001,0.0044,0.0084,0.0132,0.0175,0.0215,0.0197,0.0201,0.0232,0.0315,0.0289,0.0297,0.0235,0.0236,0.0237,0.0335,0,-0.0475,-0.0491,-0.0453,-0.0443,-0.0441,-0.0364,-0.0325,-0.0259,-0.0195,-0.0136,-0.0054,0.0,0.0038,0.0061,0.0112,0.0195,0.0235,0.0186,0.032,0.0324,0.0298,0.0305,0.0261,0.0342,0.0344,0.0345,0.0346,0,-0.0519,-0.0522,-0.0536,-0.0493,-0.0483,-0.0462,-0.0389,-0.0343,-0.0238,-0.019,-0.0116,-0.0049,0.0038,0.0056,0.0199,0.0164,0.0228,0.0287,0.0293,0.0295,0.0314,0.035,0.0357,0.0361,0.036,0.0359,0.0358,0,-0.059,-0.0572,-0.059,-0.0576,-0.052,-0.0505,-0.0463,-0.037,-0.0322,-0.0229,-0.0183,-0.0075,-0.0005,0.0086,0.0219,0.0205,0.0371,0.0373,0.0412,0.0411,0.0414,0.041,0.0456,0.0456,0.0456,0.0456,0.0455,0,-0.0646,-0.0652,-0.063,-0.0639,-0.0643,-0.0574,-0.0548,-0.0489,-0.0394,-0.0325,-0.0224,-0.0145,0.0005,0.0128,0.0218,0.035,0.0378,0.041,0.0436,0.0392,0.0385,0.0435,0.0431,0.0459,0.0459,0.0458,0.0457,0,-0.0718,-0.0706,-0.0723,-0.0693,-0.0683,-0.0686,-0.0609,-0.0573,-0.0482,-0.0388,-0.0359,-0.0181,-0.0025,0.0123,0.0296,0.0358,0.0472,0.0507,0.044,0.0454,0.0475,0.0467,0.0549,0.0548,0.0548,0.0548,0.0548,0,-0.0759,-0.0783,-0.0781,-0.0791,-0.0782,-0.0765,-0.0737,-0.064,-0.0578,-0.0396,-0.0344,-0.0176,-0.0079,0.016,0.0315,0.0455,0.0498,0.0506,0.0463,0.0468,0.0486,0.0478,0.047,0.0453,0.0452,0.0451,0.0451,0,-0.0831,-0.0834,-0.0848,-0.0877,-0.0872,-0.0842,-0.0786,-0.0753,-0.0601,-0.0539,-0.0408,-0.034,-0.0088,0.0066,0.0272,0.0358,0.0472,0.0494,0.055,0.0419,0.0381,0.0396,0.0392,0.0445,0.0445,0.0446,0.0446,0.0446,-0.0878,-0.0911,-0.0932,-0.0954,-0.094,-0.0898,-0.0872,-0.0795,-0.0732,-0.0577,-0.0478,-0.0343,-0.0152,0.0106,0.0249,0.0416,0.0415,0.0461,0.0462,0.0465,0.0419,0.0381,0.0437,0.0437,0.0438,0.0438,0.0438,0,-0.0935,-0.0964,-0.0995,-0.1001,-0.0983,-0.0956,-0.0877,-0.0824,-0.0764,-0.0619,-0.0525,-0.0326,-0.0162,0.0062,0.0275,0.037,0.0368,0.042,0.0404,0.0408,0.0412,0.0363,0.0368,0.0368,0.0368,0.0368,0,0,-0.0964,-0.1019,-0.1035,-0.1034,-0.1019,-0.0962,-0.092,-0.085,-0.0738,-0.063,-0.0506,-0.0342,-0.0134,0.0024,0.0167,0.0277,0.0316,0.0287,0.0328,0.0295,0.0298,0.0417,0.0343,0,0,0,0,0]}],[{"header":{"parameterUnit":"m.s-1","parameterCategory":2,"la1":30.2991,"la2":30.254,"lo1":-89.0895,"lo2":-89.0444,"dy":0.0017,"dx":0.0017,"nx":28,"ny":28,"refTime":"2025-12-26T09:00:00:Z","depth":"4","parameterNumber":2,"parameterNumberName":"U-component_of_CURRENTS"},"data":[0,0,0,0,0,0,0,0,0,0,0,0,0,0,0,0,0,0,0,0,0,0,0,0,0,0,0,0,0,0,0,0,0,0,0,0,0,0,0,0,0,0,0,0,0,0,0,0,0,0,0,0,0,0,0,0,0,0,-0.0821,-0.0821,0,-0.0882,-0.0882,-0.0883,-0.0905,-0.0905,-0.0905,-0.0905,-0.0995,-0.0997,-0.0999,0,0,0,0,0,0,0,0,0,0,0,0,0,-0.0742,-0.0743,-0.082,-0.0821,-0.0823,-0.0882,-0.0882,-0.0883,-0.0905,-0.0905,-0.0905,-0.0905,-0.0994,-0.0997,-0.0999,0,0,0,0,0,0,0,0,0,0,0,0,0,-0.0784,-0.0743,-0.082,-0.0843,-0.0846,-0.0882,-0.0882,-0.0883,-0.0905,-0.0905,-0.0905,-0.0905,-0.0993,-0.0996,-0.1,-0.1018,0,0,-0.101,-0.1012,0,0,0,0,0,0,0,0,-0.0781,-0.0786,-0.0839,-0.0842,-0.0845,-0.0889,-0.0888,-0.0931,-0.0905,-0.0879,-0.0905,-0.0905,-0.0964,-0.097,-0.0976,-0.1023,-0.1026,-0.1011,-0.1013,-0.1014,-0.1015,0,0,0,0,0,0,0,-0.0778,-0.0784,-0.0841,-0.084,-0.0844,-0.0858,-0.0863,-0.0896,-0.0918,-0.0881,-0.0884,-0.0896,-0.0965,-0.0972,-0.0978,-0.1028,-0.1011,-0.1014,-0.1016,-0.1017,-0.1123,-0.1123,0,0,0,0,0,0,-0.0777,-0.0781,-0.0839,-0.0843,-0.0817,-0.0859,-0.0865,-0.0872,-0.0917,-0.0925,-0.0896,-0.0897,-0.0966,-0.0974,-0.0982,-0.1058,-0.1014,-0.1017,-0.1019,-0.1122,-0.1123,-0.1124,0,0,0,0,0,0,-0.0775,-0.0781,-0.0837,-0.0817,-0.0825,-0.086,-0.0868,-0.0873,-0.0899,-0.0928,-0.0936,-0.0919,-0.0967,-0.0977,-0.1031,-0.1059,-0.1019,-0.1022,-0.1121,-0.1122,-0.1123,-0.1177,0,0,0,0,0,0,-0.0772,-0.078,-0.079,-0.0816,-0.0826,-0.0861,-0.0868,-0.0874,-0.0906,-0.0909,-0.095,-0.0957,-0.0968,-0.1026,-0.1035,-0.1063,-0.1025,-0.112,-0.1121,-0.1123,-0.1174,-0.118,-0.1185,0,0,0,0,0,-0.0769,-0.078,-0.079,-0.0798,-0.0837,-0.0862,-0.0868,-0.0891,-0.0908,-0.0916,-0.0955,-0.0957,-0.104,-0.103,-0.104,-0.107,-0.1119,-0.1121,-0.1123,-0.1172,-0.1179,-0.1185,0,0,0,0,0,0,-0.0752,-0.0785,-0.0796,-0.0817,-0.084,-0.0867,-0.0885,-0.0903,-0.094,-0.0954,-0.0978,-0.0989,-0.1046,-0.1047,-0.1036,-0.1101,-0.1076,-0.1079,-0.111,-0.1116,-0.1121,-0.112,-0.1028,0,0,0,0,0,-0.0754,-0.0776,-0.08,-0.0823,-0.0832,-0.0863,-0.0881,-0.09,-0.0934,-0.0951,-0.0986,-0.102,-0.1056,-0.1079,-0.1107,-0.115,-0.1135,-0.117,-0.1175,-0.1179,-0.1183,-0.1173,-0.1178,-0.1129,-0.1129,-0.1129,0,0,-0.0758,-0.078,-0.0793,-0.0822,-0.0843,-0.0865,-0.0873,-0.0907,-0.0936,-0.0957,-0.1016,-0.1048,-0.1072,-0.1121,-0.1145,-0.113,-0.1188,-0.1182,-0.1186,-0.1186,-0.1175,-0.118,-0.1184,-0.113,-0.113,-0.113,0,0,-0.0769,-0.079,-0.0807,-0.0828,-0.0865,-0.0883,-0.0897,-0.0936,-0.096,-0.1019,-0.1041,-0.109,-0.1147,-0.1168,-0.1185,-0.1233,-0.1218,-0.1242,-0.127,-0.1261,-0.1265,-0.1268,-0.1264,-0.1266,-0.1241,-0.1241,-0.1241,0,-0.0771,-0.0796,-0.0816,-0.0837,-0.0861,-0.0893,-0.0915,-0.0943,-0.1002,-0.1026,-0.1044,-0.1139,-0.1166,-0.1218,-0.1241,-0.1247,-0.1238,-0.1248,-0.1268,-0.127,-0.1273,-0.1268,-0.127,-0.1244,-0.1243,-0.1243,-0.1243,0,-0.0785,-0.0816,-0.0829,-0.0866,-0.0891,-0.092,-0.0956,-0.0994,-0.1038,-0.1066,-0.1138,-0.1186,-0.1238,-0.1256,-0.1274,-0.131,-0.1298,-0.1278,-0.1252,-0.1281,-0.1274,-0.1275,-0.1248,-0.1247,-0.1246,-0.1245,0,0,-0.0763,-0.0824,-0.0833,-0.0857,-0.0911,-0.0931,-0.0982,-0.1025,-0.1053,-0.1126,-0.1166,-0.1252,-0.1282,-0.1303,-0.1331,-0.1335,-0.1358,-0.1323,-0.1321,-0.1321,-0.1344,-0.1252,-0.1244,-0.1342,-0.1342,-0.1342,-0.1336,0,-0.0769,-0.0809,-0.0844,-0.0895,-0.0916,-0.0965,-0.1001,-0.105,-0.1094,-0.1139,-0.1199,-0.1253,-0.1296,-0.1332,-0.135,-0.1357,-0.1362,-0.1362,-0.1315,-0.1314,-0.1229,-0.1242,-0.1343,-0.1337,-0.1337,-0.1337,-0.1337,0,-0.0765,-0.0797,-0.0839,-0.0905,-0.0917,-0.0956,-0.1015,-0.1052,-0.1112,-0.1148,-0.1218,-0.1262,-0.1328,-0.1336,-0.1377,-0.1377,-0.1372,-0.1366,-0.1365,-0.1258,-0.1223,-0.1299,-0.1338,-0.1338,-0.1338,-0.1338,-0.1338,0,-0.073,-0.0796,-0.0831,-0.0854,-0.0925,-0.0962,-0.1001,-0.1059,-0.1083,-0.1156,-0.1173,-0.1264,-0.1301,-0.1327,-0.1358,-0.1368,-0.1361,-0.1362,-0.1273,-0.1267,-0.1329,-0.1326,-0.1362,-0.1362,-0.1362,-0.1362,-0.1362,0,-0.0719,-0.0751,-0.0821,-0.0844,-0.0873,-0.0941,-0.0977,-0.1021,-0.1081,-0.1096,-0.1177,-0.1203,-0.1296,-0.1316,-0.1344,-0.1312,-0.1353,-0.1278,-0.1255,-0.1353,-0.1353,-0.133,-0.1327,-0.1362,-0.1362,-0.1362,-0.1362,0,-0.068,-0.0729,-0.0767,-0.0843,-0.0859,-0.0883,-0.0951,-0.097,-0.103,-0.1052,-0.1079,-0.116,-0.1193,-0.1251,-0.1281,-0.1267,-0.1258,-0.1227,-0.1333,-0.1316,-0.1179,-0.1178,-0.1139,-0.1136,-0.1133,-0.1131,-0.1129,0,-0.0667,-0.0681,-0.0742,-0.0755,-0.0794,-0.0837,-0.0852,-0.0931,-0.0952,-0.1015,-0.1012,-0.1069,-0.1116,-0.1089,-0.116,-0.1185,-0.1175,-0.1159,-0.1179,-0.1172,-0.1154,-0.1158,-0.1162,-0.1124,-0.1123,-0.1123,-0.1122,0,-0.063,-0.0653,-0.0678,-0.0694,-0.072,-0.0737,-0.0779,-0.0788,-0.0868,-0.0918,-0.0938,-0.097,-0.0982,-0.1042,-0.1049,-0.1072,-0.1171,-0.1129,-0.1136,-0.1155,-0.1153,-0.1139,-0.1146,-0.1112,-0.1113,-0.1114,-0.1115,0,-0.0598,-0.0592,-0.0618,-0.0625,-0.0641,-0.0642,-0.0678,-0.0712,-0.0742,-0.0831,-0.0837,-0.0896,-0.0971,-0.0978,-0.0994,-0.1001,-0.1005,-0.0987,-0.1001,-0.1013,-0.0975,-0.0956,-0.0829,0,0,0,0,0,-0.0566,-0.0548,-0.0548,-0.0552,-0.0563,-0.0575,-0.0622,-0.0668,-0.0739,-0.073,-0.0792,-0.0813,-0.0847,-0.0886,-0.0873,-0.0936,-0.1003,-0.0915,-0.0987,-0.1056,-0.1068,-0.1037,0,0,0,0,0,0,-0.0543,-0.0541,-0.0524,-0.048,-0.0473,-0.0478,-0.0511,-0.0567,-0.058,-0.0664,-0.0693,-0.0752,-0.0803,-0.0842,-0.0851,-0.0862,-0.0889,-0.0962,-0.096,-0.105,-0.106,-0.1069,-0.1042,0,0,0,0,0]},{"header":{"parameterUnit":"m.s-1","parameterCategory":2,"la1":30.2991,"la2":30.254,"lo1":-89.0895,"lo2":-89.0444,"dy":0.0017,"dx":0.0017,"nx":28,"ny":28,"refTime":"2025-12-26T09:00:00:Z","depth":"4","parameterNumber":3,"parameterNumberName":"V-component_of_CURRENTS"},"data":[0,0,0,0,0,0,0,0,0,0,0,0,0,0,0,0,0,0,0,0,0,0,0,0,0,0,0,0,0,0,0,0,0,0,0,0,0,0,0,0,0,0,0,0,0,0,0,0,0,0,0,0,0,0,0,0,0,0,-0.0334,-0.0334,0,-0.0334,-0.0334,-0.0334,-0.0309,-0.0308,-0.0307,-0.0307,-0.0269,-0.0268,-0.0268,0,0,0,0,0,0,0,0,0,0,0,0,0,-0.0307,-0.0308,-0.0334,-0.0334,-0.0334,-0.0334,-0.0334,-0.0334,-0.0309,-0.0308,-0.0307,-0.0306,-0.0269,-0.0268,-0.0268,0,0,0,0,0,0,0,0,0,0,0,0,0,-0.0314,-0.0308,-0.0334,-0.0321,-0.032,-0.0334,-0.0334,-0.0334,-0.0309,-0.0308,-0.0307,-0.0306,-0.0269,-0.0268,-0.0268,-0.0285,0,0,-0.0266,-0.0266,0,0,0,0,0,0,0,0,-0.0314,-0.0315,-0.0323,-0.0322,-0.0321,-0.032,-0.0311,-0.0316,-0.0309,-0.0313,-0.0307,-0.0305,-0.0283,-0.0281,-0.0284,-0.0283,-0.0281,-0.0266,-0.0266,-0.0266,-0.0265,0,0,0,0,0,0,0,-0.0313,-0.0315,-0.0334,-0.0323,-0.0322,-0.0314,-0.0314,-0.0312,-0.0303,-0.0313,-0.0311,-0.0311,-0.0282,-0.0285,-0.0283,-0.0281,-0.0266,-0.0266,-0.0265,-0.0265,-0.0292,-0.0293,0,0,0,0,0,0,-0.0315,-0.0315,-0.0334,-0.0334,-0.0315,-0.0315,-0.0315,-0.0322,-0.0304,-0.0301,-0.0312,-0.031,-0.0286,-0.0284,-0.0282,-0.0297,-0.0266,-0.0265,-0.0265,-0.0291,-0.0292,-0.0293,0,0,0,0,0,0,-0.0314,-0.0317,-0.0334,-0.0324,-0.0325,-0.0317,-0.0324,-0.0322,-0.0324,-0.0304,-0.03,-0.0316,-0.0286,-0.0282,-0.0281,-0.0295,-0.0265,-0.0264,-0.029,-0.0291,-0.0293,-0.033,0,0,0,0,0,0,-0.0314,-0.0317,-0.0324,-0.0324,-0.0326,-0.0341,-0.0325,-0.0323,-0.0326,-0.0323,-0.0306,-0.0302,-0.0284,-0.0282,-0.028,-0.0294,-0.0264,-0.0288,-0.029,-0.0292,-0.0327,-0.0332,-0.0337,0,0,0,0,0,-0.0313,-0.0324,-0.0325,-0.0327,-0.0336,-0.0342,-0.0342,-0.0332,-0.0327,-0.033,-0.032,-0.0302,-0.0293,-0.0282,-0.028,-0.0294,-0.0287,-0.029,-0.0292,-0.0325,-0.0331,-0.0337,0,0,0,0,0,0,-0.0315,-0.0323,-0.0323,-0.0337,-0.0339,-0.0337,-0.0343,-0.0339,-0.0336,-0.0334,-0.0313,-0.0308,-0.0314,-0.0303,-0.0291,-0.0309,-0.0289,-0.0291,-0.0315,-0.0321,-0.0325,-0.0331,-0.0263,0,0,0,0,0,-0.0321,-0.0334,-0.0336,-0.0349,-0.0352,-0.0351,-0.0353,-0.0349,-0.0345,-0.0343,-0.0333,-0.0327,-0.0325,-0.032,-0.0317,-0.0325,-0.0306,-0.0335,-0.034,-0.0344,-0.0349,-0.0344,-0.0349,-0.0301,-0.0301,-0.0301,0,0,-0.0328,-0.0333,-0.0342,-0.0351,-0.0354,-0.0368,-0.035,-0.0358,-0.0371,-0.034,-0.0355,-0.0344,-0.0332,-0.0341,-0.0343,-0.033,-0.0344,-0.0347,-0.035,-0.0353,-0.0347,-0.0352,-0.0356,-0.0303,-0.0302,-0.0302,0,0,-0.0345,-0.0352,-0.0367,-0.0374,-0.0381,-0.0383,-0.0387,-0.0391,-0.0391,-0.0403,-0.0387,-0.0387,-0.0384,-0.0378,-0.0375,-0.0408,-0.0373,-0.0407,-0.0431,-0.0427,-0.043,-0.0433,-0.0396,-0.0396,-0.0406,-0.0406,-0.0406,0,-0.0351,-0.0373,-0.0372,-0.0388,-0.0399,-0.0393,-0.0412,-0.0417,-0.0419,-0.0425,-0.0412,-0.0416,-0.0405,-0.0414,-0.0423,-0.0419,-0.0397,-0.0407,-0.0432,-0.0435,-0.0437,-0.0399,-0.0398,-0.0408,-0.0408,-0.0408,-0.0407,0,-0.0378,-0.0398,-0.0409,-0.0431,-0.044,-0.0458,-0.0463,-0.0473,-0.0475,-0.0476,-0.0486,-0.0471,-0.047,-0.0469,-0.0454,-0.0469,-0.0441,-0.044,-0.0415,-0.0444,-0.0402,-0.04,-0.0411,-0.041,-0.041,-0.0409,0,0,-0.0383,-0.0421,-0.0426,-0.0446,-0.0467,-0.0478,-0.0502,-0.052,-0.0537,-0.0533,-0.0548,-0.0547,-0.0532,-0.0528,-0.0509,-0.0503,-0.0496,-0.0479,-0.0478,-0.0436,-0.0459,-0.0378,-0.0367,-0.0497,-0.0497,-0.0497,-0.0415,0,-0.0405,-0.0445,-0.0458,-0.0502,-0.0524,-0.0533,-0.0557,-0.0571,-0.0577,-0.0588,-0.0572,-0.0581,-0.0557,-0.0554,-0.0546,-0.0513,-0.0496,-0.0516,-0.0442,-0.0439,-0.0359,-0.0365,-0.0499,-0.0414,-0.0413,-0.0413,-0.0413,0,-0.0425,-0.0451,-0.0497,-0.0543,-0.0554,-0.0581,-0.0616,-0.0635,-0.0646,-0.0649,-0.0646,-0.063,-0.0618,-0.0597,-0.0547,-0.0559,-0.0514,-0.0483,-0.0479,-0.0391,-0.0355,-0.0383,-0.0409,-0.0409,-0.0409,-0.041,-0.041,0,-0.0428,-0.0478,-0.0519,-0.0536,-0.0583,-0.0609,-0.0632,-0.0655,-0.0671,-0.0685,-0.0688,-0.0673,-0.0656,-0.0616,-0.0538,-0.0549,-0.0467,-0.0476,-0.0355,-0.0347,-0.0428,-0.0426,-0.0444,-0.0444,-0.0444,-0.0444,-0.0444,0,-0.0445,-0.0478,-0.0528,-0.0553,-0.0603,-0.0627,-0.0672,-0.0692,-0.0711,-0.0721,-0.0716,-0.0703,-0.0662,-0.0603,-0.0543,-0.0424,-0.0467,-0.0353,-0.0325,-0.0443,-0.0444,-0.0425,-0.0424,-0.0441,-0.0442,-0.0442,-0.0443,0,-0.0446,-0.0479,-0.0529,-0.0587,-0.0609,-0.0644,-0.0696,-0.0719,-0.0738,-0.0746,-0.0749,-0.0723,-0.064,-0.0566,-0.0483,-0.0415,-0.0326,-0.0272,-0.0372,-0.0353,-0.0208,-0.021,-0.0143,-0.014,-0.0137,-0.0134,-0.0132,0,-0.0453,-0.048,-0.055,-0.0584,-0.0617,-0.0668,-0.0699,-0.0731,-0.0742,-0.0743,-0.0735,-0.0673,-0.0634,-0.0442,-0.038,-0.0239,-0.0221,-0.0171,-0.0222,-0.0199,-0.018,-0.0186,-0.0192,-0.0128,-0.0127,-0.0126,-0.0125,0,-0.0465,-0.0491,-0.053,-0.0594,-0.064,-0.0684,-0.0723,-0.0728,-0.0744,-0.076,-0.0697,-0.0615,-0.0504,-0.0396,-0.0272,-0.0183,-0.021,-0.0141,-0.0148,-0.0195,-0.018,-0.0165,-0.0174,-0.0115,-0.0117,-0.0118,-0.0118,0,-0.0472,-0.0499,-0.0548,-0.0601,-0.0654,-0.0684,-0.0707,-0.0701,-0.0707,-0.0694,-0.0665,-0.0572,-0.0529,-0.0363,-0.0257,-0.0148,-0.0137,-0.0121,-0.0128,-0.0139,-0.0164,-0.0146,-0.0042,0,0,0,0,0,-0.0475,-0.0502,-0.0552,-0.0607,-0.0653,-0.0683,-0.0714,-0.0725,-0.0728,-0.067,-0.0664,-0.0556,-0.0389,-0.0333,-0.0207,-0.0216,-0.013,-0.0065,-0.0118,-0.0059,-0.0071,-0.0094,0,0,0,0,0,0,-0.0479,-0.0523,-0.0545,-0.0592,-0.0629,-0.0674,-0.0693,-0.0698,-0.0657,-0.0648,-0.0557,-0.052,-0.0361,-0.0457,-0.0204,-0.0175,-0.0188,0.0004,0.0007,-0.0052,-0.0063,-0.0072,-0.0101,0,0,0,0,0]}]]